印度国家卫星-3A星 (INSAT-3A)

导读

INSAT-3A是印度研制的多用途通信气象卫星,于2003年4月9日由欧洲阿丽亚娜火箭在法属圭亚那发射升空,定点东经93.5度地球同步轨道。作为印度国家卫星系统INSAT-3系列的重要成员,它搭载了C波段转发器,可覆盖从中东到东南亚区域,同时具备气象观测与通信服务能力,是印度当时重量最大、造价最高的卫星,标志着印度航天实力进一步提升,为印度及周边区域提供持续广播电视、气象监测和通信支撑。

Basic Information
目录编号:
27714
目录名称:
INSAT 3A
国际标识:
2003-013A
轨道中心:
EARTH
卫星名称:
印度国家卫星-3A星
卫星全名:
印度国家卫星-3A星 (INSAT-3A)
卫星状态:
在轨 (已飞行8474 天)
发射日期:
2003-04-09 UTC
国别 :
印度 (IN)
星等 :
--
Orbit Information
数据来源 国际轨道数据 AOE轨道数据
星历时间 2026-06-20T10:21:47+0800
1天前
查看轨道信息
2026-06-21T10:00:00+0800
8小时前
查看轨道信息
半长轴 42295.308km 42295.336km
偏心率 0.0009608 0.0009751
轨道倾角 8.838° 8.840°
近地点辐角 339.451° 339.589°
升交点赤经 60.973° 60.962°
平近点角 221.470° 215.225°
近地点 35876.533km 35875.956km
远地点 35957.809km 35958.442km
周期 1442.773分钟 1442.774分钟
每日圈数 0.998078 0.998077
Detailed Information
平衡模式:
三轴稳定
覆盖范围:
全球
运营商:
印度空间研究组织
运营商所在国:
印度
制造商(研发单位):
印度空间研究组织
制造商所在国:
印度
使用方式:
暂无
Satellite Introduction
印度先后发展了“印度卫星”(INSAT)和“地球静止卫星”(GSAT)两大静止轨道通信卫星系列,共发射卫星28颗,其中INSAT系列的前4颗向美国购买,后续卫星均由ISRO研制。在自行研制的24颗通信卫星中,有19颗发射成功,3颗发射失败,2颗发射部分失败。该卫星已退役。
2D Orbit Map
3D Orbit Map
Orbit Altitude Analysis Chart
Orbit Inclination Analysis Chart
Orbit Comprehensive Analysis Chart
View Comprehensive Chart